Regional Weather Roundup
Issued by NWS

Home | Current Version | Previous Version | Text Only | Print | Product List | Glossary On
Versions: 1 2 3 4 5 6 7 8 9 10 11 12 13 14 15 16 17 18 19 20 21 22 23 24 25 26 27 28 29 30 31 32 33 34 35 36 37 38 39 40 41 42 43 44 45 46 47 48 49 50
000
ASUS42 KTBW 260110
RWRFL
FLORIDA REGIONAL WEATHER ROUNDUP
NATIONAL WEATHER SERVICE TAMPA BAY RUSKIN FL
800 PM EST SUN JAN 25 2015

NOTE: "FAIR" INDICATES FEW OR NO CLOUDS BELOW 12,000 FEET WITH NO
SIGNIFICANT WEATHER AND/OR OBSTRUCTIONS TO VISIBILITY.


FLZ001>010-012>015-112-114-115-260200-
PANHANDLE FLORIDA

CITY           SKY/WX    TMP DP  RH WIND       PRES   REMARKS
PENSACOLA      CLEAR     58  48  69 W17G24    29.86R
PENSACOLA NAS  PTCLDY    60  51  72 W13G21    29.86S
MILTON NAS     PTCLDY    55  46  71 W7        29.87R
CRESTVIEW      CLEAR     56  49  77 SW7       29.89R
VALPARAISO     PTCLDY    60  50  68 W14G24    29.87R
MARY ESTHER    PTCLDY    60  49  65 SW13G23   29.85S
TRI COUNTY     FAIR      56  48  74 W5        29.88R
PANAMA CITY    FAIR      62  50  64 SW13G23   29.86F
TYNDALL AFB    PTCLDY    63  54  72 W18G28    29.89F
APALACHICOLA   PTCLDY    63  53  70 SW9       29.90F

STATION/POSITION SKY/WX   TEMP    WIND        PRES    WAVE   SWELL
                          AIR SEA DIR/SP/G            HT/PER HT/PER
                          (F)     (DEG/KT/KT) (MB)    (FT/S) (FT/S)
30.1N   87.6W              62 62  240/ 25/ 29 1010.3F   8/ 6
29.2N   88.2W              65 71  260/ 29/ 37 1012.5F   7/ 6
28.7N   86.0W              66 70  230/ 17/ 21 1013.6F   4/ 5   2/ 7
PANAMA CITY BEAC           63 62  250/ 25/ 27 1011.4F
CAPE SAN BLAS    NOT AVBL
TOWER C                    63     230/ 20/ 22 1012.6F
28.5N   84.5W              67 69  250/ 17/ 21 1014.3F   4/10   2/10

$$
FLZ011-016>038-118-127-128-134-139-239-260200-
NORTH FLORIDA

CITY           SKY/WX    TMP DP  RH WIND       PRES   REMARKS
MARIANNA       CLEAR     56  50  80 SW9       29.86F
TALLAHASSEE    PTCLDY    53  44  71 S5        29.90F
PERRY          CLEAR     52  48  86 CALM      29.95S
CROSS CITY       N/A     50  45  83 S7        29.96S
LAKE CITY      FAIR      52  45  76 SW6       29.93F
GAINESVILLE    CLEAR     53  44  71 SW8       29.96S
MAYPORT NAS    PTCLDY    50  39  66 S7        29.94R
JACKSONVILLE   PTCLDY    53  39  59 SW10      29.92S
JAX NAS        PTCLDY    59  39  47 S10       29.95R
JAX CRAIG      PTCLDY    54  39  57 SW7       29.94S
JAX CECIL      CLEAR     50  37  62 S6        29.95R
FERNANDINA BEA FAIR      55  43  62 S5        29.92S
ST AUGUSTINE   PTCLDY    53  42  66 S6        29.97R

STATION/POSITION SKY/WX   TEMP    WIND        PRES    WAVE   SWELL
                          AIR SEA DIR/SP/G            HT/PER HT/PER
                          (F)     (DEG/KT/KT) (MB)    (FT/S) (FT/S)
SHELL POINT                57     190/  8/ 12   N/A
KEATON BEACH               58     190/ 16/ 18 1014.0F
CEDAR KEY                  56     200/ 15/ 17 1015.6F
FERNANDINA                 54 58  180/  6/  7 1012.6F
30.7N   81.3W                 58                N/A     2/ 3
MAYPORT                    54 59  190/  5/  7   N/A
31.4N   80.9W              56 55  190/ 16/ 19 1012.5S   2/ 4
ST AUGUSTINE               53     210/  7/  8 1015.2R

$$
FLZ040-043>046-052-053-057-058-063-144-260200-
INTERIOR CENTRAL FLORIDA

CITY           SKY/WX    TMP DP  RH WIND       PRES   REMARKS
OCALA          PTCLDY    48  43  81 S6        30.00R
THE VILLAGES     N/A     54  46  76 S3        29.91S
LEESBURG       CLEAR     57  47  69 W8        30.03R
SANFORD        CLEAR     56  39  53 SW5       30.01R
ORLANDO EXEC   CLEAR     57  40  52 W5        30.01R
ORLANDO INTL   PTCLDY    55  40  56 CALM      30.01S
KISSIMMEE      CLEAR     55  45  67 CALM      30.01S
WINTER HAVEN   CLEAR     58  46  64 W9        30.06R
LAKELAND       CLEAR     54  46  76 W6        30.05R
BARTOW         FAIR      55  45  67 W9        30.07R
OKEECHOBEE     CLEAR     48  45  87 CALM      30.03S

$$
FLZ041-047-054-059-064-141-147-260200-
EAST CENTRAL FLORIDA

CITY           SKY/WX    TMP DP  RH WIND       PRES   REMARKS
DAYTONA BEACH  PTCLDY    53  40  61 S6        30.00R
DELAND         CLEAR    N/A N/A N/A SW6       30.02R
NEW SMYRNA BEA CLEAR     52  39  62 SW7         N/A
JFK SPACE CTR  PTCLDY    56  40  55 SW6       30.00R
CAPE CANAVERAL PTCLDY    52  41  64 SW7       30.01R
PATRICK AFB    PTCLDY    58  42  56 W7        30.01S
MELBOURNE      PTCLDY    52  39  61 SW5       30.01S
VERO BEACH     CLEAR     52  42  69 CALM      30.03R
FT PIERCE      PTCLDY    49  42  77 SW3       30.02R
STUART         MOCLDY    54  41  62 W3        30.05R

STATION/POSITION SKY/WX   TEMP    WIND        PRES    WAVE   SWELL
                          AIR SEA DIR/SP/G            HT/PER HT/PER
                          (F)     (DEG/KT/KT) (MB)    (FT/S) (FT/S)
28.5N   80.2W              61 71  210/  8/ 10 1016.2R
28.9N   78.5W              67 75  200/  8/ 12 1015.6R   4/ 7   3/ 7
TRIDENT PIER               58 66  200/  4/  6 1015.8R
28.4N   80.5W                 64                N/A     1/11
27.6N   80.2W                 73                N/A     2/ 8

$$
FLZ050-056-061-142-242-148-248-149-249-151-251-155-255-
160-260-260200-
WEST CENTRAL FLORIDA

CITY           SKY/WX    TMP DP  RH WIND       PRES   REMARKS
CRYSTAL RIVER  FAIR      46  43  87 CALM      30.00F
INVERNESS      FAIR      46  45  93 CALM      30.02R
BROOKSVILLE    CLEAR     50  45  83 S6        30.03R
ZEPHYRHILLS    FAIR      52  46  82 CALM      30.06R
CLEARWATER     PTCLDY    55  49  80 S3        30.04R
TAMPA INTL     PTCLDY    58  49  72 SW8       30.05R
TAMPA EXEC     CLEAR     57  50  77 W3        30.06R
PLANT CITY       N/A    N/A N/A N/A MISG        N/A
MACDILL AFB    CLEAR     57  54  89 SW6       30.05R
PETER O KNIGHT CLEAR     59  52  77 SW3       30.05R
ST PETERSBURG  CLEAR     59  51  75 SW5       30.03R
SARASOTA       CLEAR     60  53  77 SW8       30.04R
VENICE         FAIR      59  54  82 SW7       30.06R

STATION/POSITION SKY/WX   TEMP    WIND        PRES    WAVE   SWELL
                          AIR SEA DIR/SP/G            HT/PER HT/PER
                          (F)     (DEG/KT/KT) (MB)    (FT/S) (FT/S)
CEDAR KEY                  56     200/ 15/ 17 1015.6F
28.5N   84.5W              67 69  250/ 17/ 21 1014.3F   4/10   2/10
27.3N   84.3W                 73                N/A     4/ 9
CLEARWATER BEACH           60 65  190/ 12/ 15 1017.0R
MIDDLE TAMPA BAY           60     240/ 10/ 12 1017.6R
VENICE                     61 66  210/  8/  9 1017.0R

$$
FLZ066-069-070-075>078-162-262-165-265-260200-
SOUTHWEST FLORIDA AND KEYS

CITY           SKY/WX    TMP DP  RH WIND       PRES   REMARKS
PUNTA GORDA    CLEAR     57  50  77 W6        30.08R
FT MYERS       CLEAR     58  50  75 W5        30.05R
SOUTHWEST INTL CLEAR     58  50  75 CALM      30.05R
NAPLES         CLEAR     58  52  80 W3        30.04R
MARCO ISLAND   PTCLDY    57  50  77 W5        30.04S
IMMOKALEE      CLEAR    N/A N/A N/A CALM      30.04F
MARATHON       MOCLDY    64  54  69 NW8       30.06R
KEY WEST NAS   MOCLDY    63  54  72 N3        30.06R
KEY WEST INTL  PTCLDY    63  56  78 CALM      30.06R

STATION/POSITION SKY/WX   TEMP    WIND        PRES    WAVE   SWELL
                          AIR SEA DIR/SP/G            HT/PER HT/PER
                          (F)     (DEG/KT/KT) (MB)    (FT/S) (FT/S)
VENICE                     61 66  210/  8/  9 1017.0R
NAPLES                     62 76  290/  6/  7 1017.9R
26.0N   85.6W              69 73  230/ 12/ 16 1016.4F   4/ 8   3/ 8
DRY TORTUGAS               68     280/  8/ 12 1017.2R
NW FL BAY                  65     320/ 11/ 13 1017.3R
SAND KEY                   65     340/  4/  5 1017.7R
SOMBRERO KEY               65     330/ 11/ 13 1018.3R
LONG KEY                   65 70  320/ 12/ 14 1018.5R
MOLASSES REEF              65 75  280/  8/ 10 1017.0R

$$
FLZ067-068-071>074-168-172>174-260200-
SOUTHEAST FLORIDA

CITY           SKY/WX    TMP DP  RH WIND       PRES   REMARKS
W PALM BEACH   MOCLDY    56  39  53 NW6       30.03R
FT LAUDER-EXEC CLOUDY    60  39  45 NW3       30.03R
FT LAUDERDALE  CLOUDY    61  43  51 CALM      30.02S
POMPANO BEACH  CLOUDY    62  38  40 W5        30.03R
PEMBROKE PINES CLOUDY    60  44  55 CALM      30.04S
OPA LOCKA      CLOUDY    60  45  57 CALM      30.03S
MIAMI          CLOUDY    61  43  51 CALM      30.04R
WEST KENDALL   CLOUDY    59  47  64 W3        30.04R
HOMESTEAD      CLOUDY    58  49  72 CALM      30.04R

STATION/POSITION SKY/WX   TEMP    WIND        PRES    WAVE   SWELL
                          AIR SEA DIR/SP/G            HT/PER HT/PER
                          (F)     (DEG/KT/KT) (MB)    (FT/S) (FT/S)
PORT EVERGLADES            63     260/  5/  6 1016.5
VIRGINIA KEY               64 71  310/  2/  4 1017.2S
LAKE WORTH                 60 75  290/  5/  7 1016.3S
SETTLEMENT POINT           66     280/  7/  8 1016.8R

$$



USA.gov is the U.S. government's official web portal to all federal, state and local government web resources and services.